Showing default

GOES 15, 36411

Orbit data source: Space-Track

GOES 15, 36411 is a payload satellite owned by NOAA (US) in GEO that was launched on Thu, 04 Mar 2010 UTC via a DELTA 4M+(4,2) launch vehicle from the Air Force Eastern Test Range (AFETR). Payloads include a variety of satellites, spacecraft, and rockets equipped with specific instruments for various scientific and technological missions. These include communications satellites like Starlink; space stations such as the ISS; scientific satellites like the Hubble; Earth observation satellites from companies like Planet Labs, Umbra, and HawkEye 360; GPS; miniature CubeSats for education and research; and military/defense satellites.

Not visible in the next 10 days
GOES 15 details
Identifier
36411, 2010-008A
Orbit
GEO
Last TLE update14 hours ago
Origin
Flag of USNOAA (US)
ManufacturerBoeing/ES
MissionOn reserve Civil Weather
Bus & MotorHS-601, R-4D?
Mass3,215 kg wet, 1,543 kg dry
Launch date (UTC)
2010-03-04 (15 years ago)
Launch vehicle
DELTA 4M+(4,2)
Launch site
Air Force Eastern Test Range (AFETR)
Object type
Payload
Rocket body
Debris
Shape & HBRBox + 1 Pan + 1 Ant, 8.4 m
Radar Cross Section59.640 m², Large (>1 m²)

Expand to show TLE details & history

TLE from 14 hours ago
0 GOES 15
1 36411U 10008A   24325.73624057  .00000036  00000-0  00000-0 0  9993
2 36411   0.1910 273.1053 0007339 332.0945 141.7771  1.00276942 53891
Epoch: 2024-11-20T17:40Z
Definitive object data (Epoch: 2024-11-20T17:40:11.185Z)
Latitude0.19387°
Longitude61.73792°
Altitude35,809.04 km
Speed3.073 km/s
True Right ascension01h 48m 03s
True Declination0° 11' 37"
Sunlit
Object was in daylight at TLE epoch
Visualization TLE readout
Latitude-0.14134°
Longitude-92.96929°
Altitude35,754.327 km
Speed3.077 km/s
Apparent Right ascension15h 34m 41s
Apparent Declination-5° 05' 06"
Sunlit
Object is in daylight
Visualization observer readout
Local Sidereal Time04:22:02
Azimuth20.125° NNE
Elevation-53.571°
Doppler factor1
Orbital elements
Apogee altitude35,817.164 km
Perigee altitude35,755.275 km
Semi-major axis42,164.357 km
Eccentricity0.0007339
Inclination0.191°
RAAN273.1053°
Arg. of periapsis332.0945°
True anomaly141.8291°
Mean anomaly141.7771°
Eccentric anomaly141.8031°
Mean motion0.25068 °/min
BSTARUnknown
Orbital period1436.08 mins
Loading historical data...
36411 neighbors
Authenticating...
Loading maneuver chart data...
Loading historical data...
Loading historical data...
Loading historical data...
Loading historical data...
Loading historical data...
Loading historical data...
Loading historical data...
Other satellites on launch #8 in the year 2010 (2010-03-04 UTC)

GOES 15 Visibility forecast

Observer location: undefined°, undefined

GOES 15 is not visible in the next 10 days
Span
Click to sort rows by Start time (UTC) header in descending order
Start Az.
Max El. time (UTC)
Max El. Az.
Max El.
End time (UTC)
End Az.
|